Retour au catalogue

FENGYUN 1C DEB

ActifPO
NORAD 29955·DEBRIS·🇨🇳 China

Lancé May 10, 1999 depuis Taiyuan Satellite Launch Center

Loading…

Prochains Passages (prochaines 24 heures)

TLE

FraisSource: Space-Track

Époque: Sep 13, 2026, 18:52 UTC

1 29955U 99025KD  26256.78650139  .00002653  00000-0  85162-3 0  9996
2 29955  99.2719   4.6369 0008248 168.2036 345.0164 14.40355849 20159

Suivez FENGYUN 1C DEB en temps réel avec AllMySat

Download on the App Store